• In France
  • List of Countries
  • For 7 days
  • Water Temperature
  • Satellite Maps
  • Weather Map
  • Weather Widgets
  • user-avatar
    Login

    Hourly Weather Ayorou

    Today, 18 September, Tuesday

    Time Temperature Precipitation Wind Pressure Humidity
    00:00 +38°C° 0 mm 3 mps 737 mmHg 33%
    01:00 +37°C° 0 mm 4 mps 737 mmHg 35%
    02:00 +36°C° 0 mm 4 mps 737 mmHg 38%
    03:00 +36°C° 0 mm 5 mps 737 mmHg 41%
    04:00 +35°C° 0 mm 5 mps 737 mmHg 43%
    05:00 +34°C° 0 mm 5 mps 737 mmHg 45%
    06:00 +34°C° 0 mm 5 mps 737 mmHg 46%
    07:00 +35°C° 0 mm 5 mps 738 mmHg 43%
    08:00 +36°C° 0 mm 6 mps 738 mmHg 40%
    09:00 +38°C° 0 mm 6 mps 738 mmHg 37%
    10:00 +40°C° 0 mm 5 mps 738 mmHg 33%
    11:00 +41°C° 0 mm 5 mps 738 mmHg 29%
    12:00 +43°C° 0 mm 3 mps 738 mmHg 25%
    13:00 +42°C° 0 mm 2 mps 737 mmHg 24%
    14:00 +42°C° 0 mm 1 mps 736 mmHg 22%
    15:00 +40°C° 0 mm 0 mps 736 mmHg 20%
    16:00 +42°C° 0 mm 1 mps 736 mmHg 20%
    17:00 +42°C° 0 mm 1 mps 736 mmHg 20%
    18:00 +42°C° 0 mm 1 mps 736 mmHg 21%
    19:00 +42°C° 0 mm 2 mps 736 mmHg 22%
    20:00 +42°C° 0 mm 3 mps 736 mmHg 23%
    21:00 +40°C° 0 mm 3 mps 737 mmHg 25%
    22:00 +40°C° 0 mm 3 mps 737 mmHg 27%
    23:00 +39°C° 0 mm 3 mps 737 mmHg 29%

    Tomorrow, 19 September, Wednesday

    Time Temperature Precipitation Wind Pressure Humidity
    00:00 +38°C° 0 mm 3 mps 737 mmHg 31%
    01:00 +37°C° 0 mm 3 mps 736 mmHg 33%
    02:00 +37°C° 0 mm 4 mps 736 mmHg 35%
    03:00 +36°C° 0 mm 4 mps 736 mmHg 37%
    04:00 +35°C° 0 mm 4 mps 736 mmHg 40%
    05:00 +35°C° 0 mm 4 mps 736 mmHg 42%
    06:00 +34°C° 0 mm 4 mps 737 mmHg 44%
    07:00 +36°C° 0 mm 5 mps 737 mmHg 42%
    08:00 +37°C° 0 mm 5 mps 738 mmHg 40%
    09:00 +39°C° 0 mm 6 mps 738 mmHg 38%
    10:00 +40°C° 0 mm 6 mps 738 mmHg 34%
    11:00 +42°C° 0 mm 5 mps 738 mmHg 31%
    12:00 +43°C° 0 mm 5 mps 738 mmHg 27%
    13:00 +43°C° 0 mm 4 mps 737 mmHg 25%
    14:00 +44°C° 0 mm 3 mps 736 mmHg 22%
    15:00 +43°C° 0 mm 1 mps 735 mmHg 20%
    16:00 +43°C° 0 mm 1 mps 735 mmHg 20%
    17:00 +42°C° 0 mm 1 mps 735 mmHg 20%
    18:00 +42°C° 0 mm 1 mps 735 mmHg 21%
    19:00 +41°C° 0 mm 2 mps 736 mmHg 22%
    20:00 +41°C° 0 mm 2 mps 736 mmHg 24%
    21:00 +40°C° 0 mm 3 mps 737 mmHg 26%
    22:00 +40°C° 0 mm 4 mps 737 mmHg 28%
    23:00 +40°C° 0 mm 4 mps 737 mmHg 31%

    Day after tomorrow, 20 September, Thursday

    Time Temperature Precipitation Wind Pressure Humidity
    00:00 +38°C° 0 mm 4 mps 737 mmHg 33%
    01:00 +37°C° 0 mm 5 mps 736 mmHg 38%
    02:00 +36°C° 0 mm 5 mps 736 mmHg 43%
    03:00 +35°C° 0 mm 5 mps 736 mmHg 48%
    04:00 +35°C° 0 mm 5 mps 736 mmHg 49%
    05:00 +34°C° 0 mm 5 mps 737 mmHg 50%
    06:00 +34°C° 0 mm 5 mps 737 mmHg 51%
    07:00 +35°C° 0 mm 5 mps 738 mmHg 48%
    08:00 +36°C° 0 mm 5 mps 738 mmHg 46%
    09:00 +36°C° 0 mm 5 mps 739 mmHg 44%
    10:00 +39°C° 0 mm 5 mps 738 mmHg 39%
    11:00 +41°C° 0 mm 5 mps 738 mmHg 34%
    12:00 +42°C° 0 mm 4 mps 737 mmHg 29%
    13:00 +43°C° 0 mm 4 mps 737 mmHg 26%
    14:00 +43°C° 0 mm 3 mps 736 mmHg 24%
    15:00 +43°C° 0 mm 2 mps 735 mmHg 21%
    16:00 +42°C° 0 mm 2 mps 735 mmHg 22%
    17:00 +43°C° 0 mm 3 mps 735 mmHg 23%
    18:00 +42°C° 0 mm 3 mps 735 mmHg 24%
    19:00 +42°C° 0 mm 3 mps 736 mmHg 27%
    20:00 +41°C° 0 mm 4 mps 737 mmHg 29%
    21:00 +40°C° 0 mm 5 mps 737 mmHg 31%
    22:00 +40°C° 0 mm 5 mps 737 mmHg 33%
    23:00 +39°C° 0 mm 5 mps 737 mmHg 35%

    21 September, Friday

    Time Temperature Precipitation Wind Pressure Humidity
    00:00 +39°C° 0 mm 6 mps 737 mmHg 36%
    01:00 +37°C° 0 mm 5 mps 737 mmHg 39%
    02:00 +36°C° 0 mm 4 mps 736 mmHg 41%
    03:00 +36°C° 0 mm 4 mps 736 mmHg 43%
    04:00 +35°C° 0.4 mm 3 mps 736 mmHg 44%
    05:00 +35°C° 0.4 mm 3 mps 736 mmHg 45%
    06:00 +35°C° 0.4 mm 2 mps 737 mmHg 45%
    07:00 +35°C° 0.2 mm 3 mps 737 mmHg 44%
    08:00 +36°C° 0.2 mm 4 mps 738 mmHg 43%
    09:00 +38°C° 0.2 mm 6 mps 739 mmHg 42%
    10:00 +39°C° 0 mm 6 mps 738 mmHg 40%
    11:00 +40°C° 0 mm 6 mps 738 mmHg 38%
    12:00 +41°C° 0 mm 7 mps 737 mmHg 36%
    13:00 +41°C° 0 mm 5 mps 736 mmHg 33%
    14:00 +42°C° 0 mm 4 mps 736 mmHg 29%
    15:00 +42°C° 0 mm 3 mps 735 mmHg 26%
    16:00 +42°C° 0.2 mm 3 mps 735 mmHg 27%
    17:00 +40°C° 0.2 mm 3 mps 735 mmHg 27%
    18:00 +40°C° 0.2 mm 3 mps 735 mmHg 28%
    19:00 +40°C° 0.2 mm 4 mps 736 mmHg 31%
    20:00 +39°C° 0.2 mm 5 mps 737 mmHg 35%
    21:00 +38°C° 0.2 mm 6 mps 738 mmHg 39%
    22:00 +36°C° 1.3 mm 5 mps 738 mmHg 42%
    23:00 +35°C° 1.3 mm 5 mps 738 mmHg 46%

    22 September, Saturday

    Time Temperature Precipitation Wind Pressure Humidity
    00:00 +34°C° 1.3 mm 4 mps 738 mmHg 49%
    01:00 +34°C° 0.1 mm 3 mps 738 mmHg 50%
    02:00 +34°C° 0.1 mm 3 mps 737 mmHg 50%
    03:00 +34°C° 0.1 mm 2 mps 737 mmHg 50%
    04:00 +34°C° 0.1 mm 2 mps 737 mmHg 51%
    05:00 +34°C° 0.1 mm 2 mps 738 mmHg 51%
    06:00 +32°C° 0.1 mm 2 mps 738 mmHg 52%
    07:00 +34°C° 0 mm 3 mps 738 mmHg 50%
    08:00 +35°C° 0 mm 4 mps 739 mmHg 49%
    09:00 +35°C° 0 mm 5 mps 739 mmHg 47%
    10:00 +36°C° 0 mm 5 mps 739 mmHg 42%
    11:00 +38°C° 0 mm 4 mps 738 mmHg 38%
    12:00 +39°C° 0 mm 3 mps 738 mmHg 33%
    13:00 +39°C° 0 mm 3 mps 737 mmHg 31%
    14:00 +40°C° 0 mm 2 mps 736 mmHg 29%
    15:00 +40°C° 0 mm 1 mps 736 mmHg 27%
    16:00 +40°C° 0 mm 1 mps 736 mmHg 27%
    17:00 +40°C° 0 mm 1 mps 736 mmHg 27%
    18:00 +40°C° 0 mm 1 mps 737 mmHg 27%
    19:00 +40°C° 0 mm 1 mps 737 mmHg 28%
    20:00 +40°C° 0 mm 2 mps 737 mmHg 28%
    21:00 +39°C° 0 mm 2 mps 738 mmHg 29%
    22:00 +39°C° 0 mm 2 mps 737 mmHg 30%
    23:00 +38°C° 0 mm 3 mps 737 mmHg 31%

    23 September, Sunday

    Time Temperature Precipitation Wind Pressure Humidity
    00:00 +38°C° 0 mm 3 mps 737 mmHg 32%
    01:00 +37°C° 0 mm 3 mps 737 mmHg 34%
    02:00 +36°C° 0 mm 3 mps 737 mmHg 36%
    03:00 +36°C° 0 mm 3 mps 736 mmHg 38%
    04:00 +36°C° 0 mm 2 mps 737 mmHg 39%
    05:00 +35°C° 0 mm 2 mps 737 mmHg 40%
    06:00 +35°C° 0 mm 2 mps 738 mmHg 41%
    07:00 +36°C° 0 mm 3 mps 738 mmHg 40%
    08:00 +37°C° 0 mm 3 mps 738 mmHg 38%
    09:00 +37°C° 0 mm 4 mps 739 mmHg 37%
    10:00 +40°C° 0 mm 4 mps 738 mmHg 33%
    11:00 +41°C° 0 mm 4 mps 738 mmHg 30%
    12:00 +42°C° 0 mm 3 mps 737 mmHg 26%
    13:00 +43°C° 0 mm 3 mps 737 mmHg 24%
    14:00 +44°C° 0 mm 3 mps 736 mmHg 22%
    15:00 +44°C° 0 mm 3 mps 735 mmHg 21%
    16:00 +43°C° 0 mm 2 mps 735 mmHg 21%
    17:00 +43°C° 0 mm 2 mps 736 mmHg 21%
    18:00 +42°C° 0 mm 1 mps 736 mmHg 21%
    19:00 +42°C° 0 mm 1 mps 736 mmHg 22%
    20:00 +41°C° 0 mm 1 mps 736 mmHg 24%
    21:00 +40°C° 0 mm 2 mps 737 mmHg 25%
    22:00 +40°C° 0 mm 3 mps 737 mmHg 27%
    23:00 +40°C° 0 mm 4 mps 736 mmHg 30%
    Show more